TimeEDT,TemperatureF,Dew PointF,Humidity,Sea Level PressureIn,VisibilityMPH,Wind Direction,Wind SpeedMPH,Gust SpeedMPH,PrecipitationIn,Events,Conditions,WindDirDegrees,DateUTC
12:15 AM,39.2,26.6,61,30.02,10.0,WNW,5.8,-,N/A,,Mostly Cloudy,290,2013-03-30 04:15:00
12:35 AM,39.2,26.6,61,30.02,10.0,WNW,4.6,-,N/A,,Partly Cloudy,290,2013-03-30 04:35:00
12:55 AM,37.4,26.6,65,30.02,10.0,West,6.9,-,N/A,,Clear,270,2013-03-30 04:55:00
1:15 AM,37.4,24.8,60,30.02,10.0,West,5.8,-,N/A,,Mostly Cloudy,280,2013-03-30 05:15:00
1:35 AM,37.4,24.8,60,30.01,10.0,West,6.9,-,N/A,,Overcast,270,2013-03-30 05:35:00
1:55 AM,39.2,24.8,56,30.01,10.0,WNW,6.9,-,N/A,,Overcast,290,2013-03-30 05:55:00
2:35 AM,39.2,26.6,61,30.01,10.0,WNW,6.9,-,N/A,,Overcast,290,2013-03-30 06:35:00
2:55 AM,39.2,26.6,61,30.01,10.0,WNW,5.8,-,N/A,,Overcast,290,2013-03-30 06:55:00
3:15 AM,39.2,26.6,61,30.01,10.0,WNW,5.8,-,N/A,,Overcast,300,2013-03-30 07:15:00
3:35 AM,39.2,26.6,61,30.01,10.0,WNW,6.9,-,N/A,,Overcast,290,2013-03-30 07:35:00
3:55 AM,39.2,26.6,61,30.01,10.0,NW,4.6,-,N/A,,Overcast,310,2013-03-30 07:55:00
4:15 AM,39.2,26.6,61,30.01,10.0,NW,5.8,-,N/A,,Overcast,320,2013-03-30 08:15:00
4:35 AM,39.2,26.6,61,30.01,10.0,Calm,Calm,-,N/A,,Overcast,0,2013-03-30 08:35:00
4:55 AM,37.4,26.6,65,30.01,10.0,WNW,4.6,-,N/A,,Overcast,290,2013-03-30 08:55:00
5:15 AM,37.4,26.6,65,30.01,10.0,NW,5.8,-,N/A,,Mostly Cloudy,310,2013-03-30 09:15:00
5:35 AM,37.4,26.6,65,30.01,10.0,WNW,4.6,-,N/A,,Mostly Cloudy,300,2013-03-30 09:35:00
5:55 AM,37.4,26.6,65,30.02,10.0,WNW,8.1,-,N/A,,Partly Cloudy,300,2013-03-30 09:55:00
6:15 AM,37.4,26.6,65,30.02,10.0,WNW,6.9,-,N/A,,Mostly Cloudy,300,2013-03-30 10:15:00
6:35 AM,37.4,26.6,65,30.02,10.0,WNW,8.1,-,N/A,,Scattered Clouds,290,2013-03-30 10:35:00
6:55 AM,37.4,26.6,65,30.03,10.0,WNW,5.8,-,N/A,,Clear,290,2013-03-30 10:55:00
7:15 AM,37.4,24.8,60,30.03,10.0,WNW,6.9,-,N/A,,Clear,300,2013-03-30 11:15:00
7:35 AM,39.2,26.6,61,30.03,10.0,NW,5.8,-,N/A,,Mostly Cloudy,310,2013-03-30 11:35:00
7:55 AM,42.8,28.4,57,30.04,10.0,NW,6.9,-,N/A,,Overcast,310,2013-03-30 11:55:00
8:15 AM,42.8,26.6,53,30.04,10.0,NW,6.9,-,N/A,,Overcast,310,2013-03-30 12:15:00
8:55 AM,44.6,26.6,49,30.04,10.0,WNW,6.9,-,N/A,,Overcast,300,2013-03-30 12:55:00
9:15 AM,44.6,24.8,46,30.04,10.0,WNW,10.4,-,N/A,,Overcast,300,2013-03-30 13:15:00
9:35 AM,44.6,24.8,46,30.05,10.0,NW,8.1,-,N/A,,Overcast,310,2013-03-30 13:35:00
9:55 AM,44.6,24.8,46,30.05,10.0,WNW,6.9,-,N/A,,Overcast,290,2013-03-30 13:55:00
10:15 AM,46.4,24.8,43,30.05,10.0,NW,3.5,-,N/A,,Overcast,310,2013-03-30 14:15:00
10:35 AM,46.4,21.2,37,30.05,10.0,NW,4.6,-,N/A,,Overcast,310,2013-03-30 14:35:00
10:55 AM,48.2,23.0,37,30.04,10.0,NNW,8.1,-,N/A,,Mostly Cloudy,340,2013-03-30 14:55:00
11:15 AM,48.2,21.2,34,30.04,10.0,WNW,5.8,-,N/A,,Partly Cloudy,290,2013-03-30 15:15:00
11:35 AM,48.2,23.0,37,30.03,10.0,NNW,5.8,-,N/A,,Clear,340,2013-03-30 15:35:00
11:55 AM,48.2,19.4,32,30.03,10.0,NNE,3.5,-,N/A,,Clear,20,2013-03-30 15:55:00
12:15 PM,51.8,21.2,30,30.03,10.0,NNW,6.9,-,N/A,,Mostly Cloudy,330,2013-03-30 16:15:00
12:35 PM,50.0,17.6,28,30.02,10.0,NW,3.5,-,N/A,,Scattered Clouds,310,2013-03-30 16:35:00
12:55 PM,51.8,19.4,28,30.01,10.0,West,11.5,16.1,N/A,,Partly Cloudy,280,2013-03-30 16:55:00
1:15 PM,51.8,17.6,26,30.01,10.0,North,4.6,-,N/A,,Scattered Clouds,360,2013-03-30 17:15:00
1:35 PM,51.8,17.6,26,30.01,10.0,NW,6.9,-,N/A,,Partly Cloudy,320,2013-03-30 17:35:00
1:55 PM,51.8,17.6,26,30.00,10.0,Calm,Calm,-,N/A,,Partly Cloudy,0,2013-03-30 17:55:00
2:16 PM,53.6,17.6,24,30.00,10.0,West,3.5,-,N/A,,Clear,260,2013-03-30 18:16:00
2:35 PM,53.6,17.6,24,29.99,10.0,NW,11.5,-,N/A,,Clear,310,2013-03-30 18:35:00
2:55 PM,51.8,15.8,24,29.99,10.0,North,6.9,-,N/A,,Clear,360,2013-03-30 18:55:00
3:15 PM,53.6,15.8,22,29.99,10.0,West,4.6,-,N/A,,Partly Cloudy,280,2013-03-30 19:15:00
3:35 PM,53.6,17.6,24,29.99,10.0,NW,9.2,17.3,N/A,,Scattered Clouds,320,2013-03-30 19:35:00
3:55 PM,53.6,17.6,24,29.99,10.0,West,10.4,-,N/A,,Partly Cloudy,280,2013-03-30 19:55:00
4:15 PM,53.6,15.8,22,29.98,10.0,WNW,10.4,17.3,N/A,,Clear,290,2013-03-30 20:15:00
4:35 PM,53.6,15.8,22,29.98,10.0,West,12.7,17.3,N/A,,Scattered Clouds,270,2013-03-30 20:35:00
4:55 PM,53.6,15.8,22,29.99,10.0,West,11.5,-,N/A,,Partly Cloudy,270,2013-03-30 20:55:00
5:15 PM,51.8,12.2,21,29.99,10.0,WSW,12.7,-,N/A,,Clear,250,2013-03-30 21:15:00
5:35 PM,51.8,12.2,21,29.99,10.0,West,12.7,18.4,N/A,,Clear,280,2013-03-30 21:35:00
5:55 PM,51.8,10.4,19,30.00,10.0,WNW,9.2,18.4,N/A,,Clear,290,2013-03-30 21:55:00
6:35 PM,50.0,12.2,22,30.01,10.0,West,12.7,-,N/A,,Clear,280,2013-03-30 22:35:00
6:55 PM,48.2,14.0,25,30.02,10.0,West,8.1,-,N/A,,Clear,280,2013-03-30 22:55:00
7:15 PM,48.2,14.0,25,30.03,10.0,West,6.9,-,N/A,,Clear,270,2013-03-30 23:15:00
7:35 PM,46.4,12.2,25,30.03,10.0,West,4.6,-,N/A,,Clear,270,2013-03-30 23:35:00
7:55 PM,44.6,14.0,29,30.04,10.0,West,8.1,-,N/A,,Clear,280,2013-03-30 23:55:00
8:15 PM,44.6,12.2,27,30.05,10.0,WNW,5.8,-,N/A,,Clear,290,2013-03-31 00:15:00
8:35 PM,44.6,12.2,27,30.06,10.0,WNW,4.6,-,N/A,,Clear,300,2013-03-31 00:35:00
8:55 PM,39.2,19.4,45,30.06,10.0,NNE,4.6,-,N/A,,Clear,20,2013-03-31 00:55:00
9:15 PM,37.4,17.6,45,30.07,10.0,NNW,3.5,-,N/A,,Clear,340,2013-03-31 01:15:00
9:35 PM,33.8,21.2,60,30.08,10.0,Calm,Calm,-,N/A,,Clear,0,2013-03-31 01:35:00
9:55 PM,30.2,21.2,69,30.08,10.0,Calm,Calm,-,N/A,,Clear,0,2013-03-31 01:55:00
10:15 PM,30.2,19.4,64,30.08,10.0,Calm,Calm,-,N/A,,Clear,0,2013-03-31 02:15:00
10:35 PM,28.4,19.4,69,30.08,10.0,Calm,Calm,-,N/A,,Clear,0,2013-03-31 02:35:00
10:55 PM,28.4,17.6,64,30.08,10.0,Calm,Calm,-,N/A,,Clear,0,2013-03-31 02:55:00
11:15 PM,26.6,19.4,74,30.08,10.0,Calm,Calm,-,N/A,,Clear,0,2013-03-31 03:15:00
11:35 PM,26.6,17.6,69,30.08,10.0,Calm,Calm,-,N/A,,Clear,0,2013-03-31 03:35:00
11:55 PM,24.8,15.8,69,30.08,10.0,Calm,Calm,-,N/A,,Clear,0,2013-03-31 03:55:00